Theta_e
278 279 278 279 279 279 279 278 276 272 274 277 277 281 281 281 281 281 280 282 285 286 287 288 289 291 292 294 296 298 300 301 303 304 308 312 315 316
278 277 277 277 277 276 277 276 276 272 270 276 276 277 278 278 279 278 278 280 281 283 284 285 286 288 290 292 293 295 296 298 299 302 304 310 312 315
275 275 275 275 274 274 274 274 273 273 269 273 275 275 275 275 276 276 276 276 276 280 282 284 285 286 288 289 290 292 293 295 297 299 301 305 308 310
274 273 272 274 272 272 272 271 271 272 270 268 272 272 272 273 274 273 275 276 276 279 282 283 285 286 287 289 290 291 292 293 294 295 297 300 303 307
273 272 272 271 271 271 270 270 270 271 271 269 269 271 272 273 273 274 274 275 277 279 282 282 283 284 286 287 288 289 290 292 293 295 296 296 298 304
273 272 272 271 271 271 270 270 270 268 269 269 269 269 271 273 274 273 273 276 276 278 280 280 282 283 284 286 287 288 290 290 290 294 296 296 297 301
272 272 272 272 273 273 270 269 269 268 268 268 269 270 271 273 273 274 273 273 274 276 276 277 279 280 282 284 284 286 287 288 290 292 293 296 296 297
271 271 272 272 273 275 276 277 276 272 271 271 272 272 272 272 274 274 273 272 270 276 274 274 277 276 279 280 284 285 286 287 289 292 293 294 296 296
272 272 272 272 272 272 274 276 277 278 278 275 273 273 273 274 274 273 273 272 271 274 275 272 276 275 278 279 283 284 286 287 289 291 292 294 296 296
272 272 271 272 273 273 273 272 273 274 275 276 275 275 276 276 276 276 275 274 275 276 276 271 275 274 277 278 283 284 286 287 289 290 291 293 296 297
273 273 272 272 274 276 274 272 273 274 278 278 278 279 279 279 278 274 270 269 268 271 275 274 274 275 277 277 280 284 286 287 288 289 290 292 295 296
272 273 275 273 276 277 273 273 272 273 272 272 274 271 273 271 274 272 270 267 268 268 274 273 274 275 272 277 279 280 281 284 287 287 291 292 295 295
270 270 273 275 276 277 278 273 271 273 273 267 267 267 268 269 270 271 272 270 268 268 274 274 274 274 274 274 277 279 280 281 283 284 287 292 295 294
269 272 272 274 276 276 275 274 275 274 264 264 264 265 266 267 269 271 272 272 272 271 272 273 270 272 273 274 273 278 279 281 281 281 284 288 291 294
271 273 274 273 273 271 271 272 270 265 263 262 263 265 267 269 270 269 271 271 271 272 273 273 273 273 274 273 274 276 277 279 281 281 282 286 287 289
272 266 268 268 268 268 266 267 266 265 265 264 264 266 267 267 266 268 268 268 268 268 272 273 273 273 271 273 275 276 278 276 280 280 281 285 287 289
260 258 259 262 262 263 263 263 264 264 264 264 264 264 265 266 266 268 269 268 266 265 266 268 271 272 273 273 272 277 278 278 279 279 280 281 285 287
256 254 257 260 260 261 261 261 262 263 263 264 263 263 264 264 264 266 268 267 265 265 265 266 267 267 268 271 277 276 280 279 280 280 281 282 283 286
254 254 255 257 258 259 259 260 260 261 263 262 263 262 263 263 264 265 267 266 265 265 265 266 265 265 262 262 270 279 280 281 281 281 282 283 282 285
253 251 252 253 255 257 257 258 258 259 260 261 261 261 262 263 263 265 265 264 264 264 264 265 265 265 263 263 265 271 278 280 281 281 282 284 286 288
252 252 251 253 254 254 254 254 254 256 258 258 259 260 262 262 264 265 265 265 265 264 262 263 266 269 268 268 265 267 272 280 283 284 285 284 284 285
255 252 252 250 250 250 249 250 253 255 256 258 259 261 262 263 264 264 264 264 264 264 263 265 267 267 266 265 264 266 269 274 281 286 287 287 285 283
254 252 250 249 248 248 247 248 251 254 256 258 259 261 262 264 264 265 264 264 264 263 264 263 264 265 265 266 266 266 268 271 277 281 286 287 287 287
Wind_Speed
5 4 3 1 1 2 1 1 2 6 6 1 2 1 6 6 10 12 12 22 29 29 31 32 34 35 34 35 35 34 33 35 36 35 34 30 29 29
4 4 4 3 2 1 1 2 2 3 7 1 3 7 6 8 13 13 13 25 26 30 31 32 33 34 34 33 34 35 35 37 37 38 38 33 30 29
5 5 4 4 3 2 3 2 4 4 9 8 3 9 12 13 12 13 13 14 13 27 32 32 32 33 34 34 35 35 36 37 37 36 38 37 34 31
8 6 5 4 5 5 4 5 6 5 5 17 10 10 13 14 15 16 13 12 14 23 32 33 33 33 33 33 33 34 34 35 36 38 39 39 38 36
9 8 7 7 6 5 5 5 5 5 6 9 16 10 12 12 16 15 15 16 13 25 28 30 31 32 32 33 33 34 33 34 35 34 36 39 41 40
9 8 8 8 8 7 6 6 6 5 7 10 13 15 13 13 13 15 15 12 13 13 20 24 29 30 33 33 32 32 28 30 34 33 34 37 38 37
7 7 7 9 12 10 6 7 7 7 7 10 13 15 15 13 14 14 17 17 15 13 14 12 12 12 13 22 26 29 32 33 34 32 34 33 37 38
8 8 8 9 11 13 14 15 12 8 11 10 11 15 21 17 14 15 17 17 23 9 14 15 11 15 13 13 27 34 36 35 34 33 34 32 36 37
8 7 8 6 7 7 12 14 16 20 22 16 18 17 22 18 20 21 20 20 22 16 17 20 13 17 14 16 34 36 36 35 35 35 35 32 34 38
8 9 8 6 7 8 9 9 12 13 14 13 15 17 19 17 18 19 22 22 21 16 14 19 14 16 15 15 33 36 35 36 34 35 35 33 31 34
9 8 7 7 11 13 9 9 11 13 14 22 28 32 32 33 32 19 17 17 21 22 13 17 19 17 16 15 15 31 34 34 34 38 36 34 33 31
7 8 10 12 14 14 8 9 10 10 10 13 11 14 20 19 28 17 13 16 16 22 11 17 17 14 19 13 14 14 15 31 31 30 32 33 23 11
6 5 6 11 12 15 16 5 6 13 12 7 10 10 12 13 12 12 14 14 17 21 15 17 16 15 16 18 13 13 13 15 15 17 26 28 25 19
7 5 6 10 11 14 12 14 15 14 4 7 9 11 11 11 11 13 16 17 17 24 21 20 18 17 16 17 19 13 14 14 13 14 13 21 28 26
7 10 10 4 7 8 11 14 8 3 6 8 9 11 12 12 16 17 17 19 21 21 18 22 20 19 17 21 21 15 18 15 14 14 14 14 14 11
9 4 2 1 2 4 5 7 6 5 7 9 10 12 13 13 13 14 15 15 16 16 17 19 21 21 19 20 18 20 17 18 12 13 15 13 12 11
7 3 2 2 1 3 3 6 6 6 7 8 10 12 13 13 14 14 15 16 17 18 17 13 17 20 19 24 20 18 17 18 16 16 15 16 14 13
3 2 1 2 2 4 4 6 6 6 7 9 10 11 13 14 15 15 15 15 17 17 18 15 14 15 16 20 31 19 18 17 16 16 18 17 15 15
3 1 2 1 2 5 5 5 6 6 9 9 10 12 13 13 17 15 16 15 17 17 16 15 14 14 17 19 16 29 18 17 15 15 15 16 19 18
3 3 3 2 3 5 5 4 6 7 8 10 11 12 12 13 15 16 16 18 18 18 17 14 14 14 16 17 18 19 28 15 15 16 15 15 17 27
3 3 3 2 4 6 5 4 6 7 9 11 11 12 13 13 15 16 17 23 23 17 20 17 15 23 16 16 18 19 20 28 28 18 14 14 14 14
4 3 3 2 5 6 3 5 5 6 9 10 11 12 12 13 15 18 18 19 18 17 19 17 17 14 14 15 18 22 17 17 21 30 38 27 10 12
4 4 2 1 5 5 5 4 4 7 9 11 11 12 13 14 15 17 18 18 18 18 18 19 16 14 15 15 19 17 23 21 14 16 14 34 35 35
Wind_Direction
146 139 132 141 100 64 21 16 304 308 308 292 238 35 7 336 321 319 319 312 312 308 304 303 297 293 292 289 287 286 283 279 276 273 274 273 267 267
136 121 101 82 38 25 298 262 226 241 279 70 321 317 330 321 314 311 305 306 304 302 302 299 295 293 290 287 282 278 274 273 273 273 270 271 267 266
128 138 157 152 172 185 244 250 256 252 275 285 335 317 315 309 310 305 302 300 296 300 297 295 294 293 288 284 281 280 279 278 275 272 267 269 269 268
154 153 169 184 200 204 213 246 255 259 277 294 304 304 309 308 302 304 301 296 292 286 291 295 295 292 289 284 281 279 278 274 269 265 267 266 267 267
161 171 176 182 209 214 212 233 251 271 284 287 295 304 300 305 307 299 293 289 281 285 286 292 291 291 289 289 288 283 280 275 272 267 259 257 262 263
171 177 185 199 210 207 208 231 245 248 266 274 285 295 298 300 290 297 293 288 292 289 290 284 285 285 285 284 280 279 279 284 282 278 269 247 250 260
174 190 195 209 216 206 202 215 231 240 247 266 278 288 292 295 295 300 292 294 288 287 288 285 283 278 277 281 283 283 281 279 282 277 278 263 244 247
183 197 210 206 225 234 247 254 243 239 254 259 273 284 286 289 291 292 292 294 295 277 277 280 281 276 274 267 270 274 277 278 278 277 277 272 251 242
189 202 209 211 209 226 245 259 270 277 275 280 279 280 289 292 294 289 281 279 276 277 278 280 274 271 271 266 269 271 274 277 277 276 273 270 263 237
190 206 212 221 228 235 253 248 255 253 257 265 269 280 278 280 274 281 282 272 272 271 258 269 276 270 272 265 268 270 272 274 275 276 276 271 267 237
200 207 210 227 236 253 260 261 266 266 273 282 286 288 291 296 296 297 286 291 288 283 277 276 277 273 268 269 266 265 267 270 275 275 273 270 267 254
196 207 212 229 241 257 264 262 272 289 292 282 285 297 294 289 289 280 283 280 279 281 272 257 271 273 277 262 267 262 264 266 268 283 285 256 257 247
183 205 203 237 259 268 276 290 279 288 301 319 295 286 284 281 278 271 270 272 279 274 283 294 284 266 257 276 265 267 268 272 272 275 275 274 247 233
190 193 205 240 260 290 295 298 294 313 325 296 289 285 283 284 284 281 277 272 267 273 283 272 275 272 285 271 268 263 259 255 257 261 260 256 257 252
174 184 207 254 293 306 298 301 319 302 281 283 283 285 285 289 293 285 277 280 278 274 274 274 266 260 255 258 272 267 267 258 252 253 253 246 241 238
155 108 95 36 290 290 311 307 291 280 283 283 285 290 292 293 293 287 296 295 289 286 276 278 280 279 274 268 266 262 255 255 250 246 250 256 247 240
104 65 65 60 333 291 278 275 277 288 290 289 292 296 297 297 297 293 290 296 291 294 292 282 274 272 267 271 263 264 251 249 244 247 243 259 250 240
60 117 128 131 246 286 278 287 290 298 298 298 295 294 293 295 296 294 290 296 293 292 291 291 288 284 278 265 253 257 253 241 238 237 233 238 246 244
101 111 162 184 259 267 268 268 290 298 297 290 288 289 289 290 301 292 301 299 295 293 290 289 285 280 281 278 281 272 257 235 230 232 231 233 242 245
119 154 203 162 257 261 270 289 290 296 299 296 289 287 288 295 296 302 303 303 299 297 293 288 279 272 266 271 278 279 288 274 243 229 231 236 242 252
135 165 194 196 260 259 260 277 270 290 294 290 283 286 291 301 299 305 302 304 301 298 295 291 284 278 271 270 265 268 272 256 245 245 238 232 232 241
147 176 206 173 255 258 262 258 282 297 292 287 289 293 296 293 310 308 306 307 305 299 293 293 294 284 269 260 263 265 269 270 263 257 235 231 227 235
159 186 175 217 256 259 252 248 276 285 286 286 288 293 298 311 315 308 306 305 305 303 302 302 297 286 275 264 260 264 262 267 266 258 242 229 230 240